| time (UTC) | temp C | wind direction | speed KPH | gust KPH | rain 1hr cm | rain 24hr cm | rain mn cm | humidity % | barometer mb |
| 20260506034102 | -17 | 157 | 3.2 | 3.2 | 0.03 | 0.00 | 0.43 | 99 | 1009.7 |
| 20260506033603 | -17 | 128 | 0.0 | 1.6 | 0.03 | 0.00 | 0.43 | 99 | 1009.2 |
| 20260506033102 | -17 | 325 | 1.6 | 1.6 | 0.03 | 0.00 | 0.43 | 99 | 1009.3 |
| 20260506032603 | -17 | 167 | 1.6 | 3.2 | 0.03 | 0.00 | 0.43 | 99 | 1009.3 |
| 20260506032102 | -17 | 325 | 0.0 | 1.6 | 0.03 | 0.00 | 0.43 | 99 | 1009.6 |
| 20260506031602 | -17 | 63 | 0.0 | 1.6 | 0.03 | 0.00 | 0.43 | 99 | 1009.5 |
| 20260506031103 | -17 | 21 | 0.0 | 0.0 | 0.03 | 0.00 | 0.43 | 99 | 1009.6 |
| 20260506030603 | -17 | 2 | 0.0 | 1.6 | 0.00 | 0.00 | 0.41 | 99 | 1009.7 |
| 20260506030103 | -17 | 296 | 4.8 | 6.4 | 0.00 | 0.00 | 0.41 | 99 | 1009.5 |
| 20260506025603 | -17 | 14 | 3.2 | 4.8 | 1.98 | 0.00 | 0.38 | 99 | 1009.3 |
| 20260506025102 | -17 | 347 | 3.2 | 4.8 | 1.65 | 0.00 | 2.34 | 99 | 1010.1 |
| 20260506024603 | -17 | 261 | 6.4 | 8.0 | 1.37 | 0.00 | 2.06 | 99 | 1009.6 |
| 20260506024102 | -17 | 38 | 3.2 | 4.8 | 0.86 | 0.00 | 1.55 | 99 | 1008.8 |
| 20260506023603 | -17 | 350 | 3.2 | 6.4 | 0.71 | 0.00 | 1.42 | 99 | 1009.3 |
| 20260506023102 | -17 | 2 | 4.8 | 9.7 | 0.56 | 0.00 | 1.24 | 99 | 1009.0 |
| 20260506022603 | -17 | 337 | 3.2 | 4.8 | 0.43 | 0.00 | 1.12 | 99 | 1009.1 |
| 20260506022103 | -17 | 328 | 3.2 | 4.8 | 0.30 | 0.00 | 0.99 | 99 | 1009.3 |
| 20260506021602 | -17 | 326 | 1.6 | 1.6 | 0.25 | 0.00 | 0.94 | 99 | 1009.3 |
| 20260506021103 | -17 | 24 | 0.0 | 1.6 | 0.18 | 0.00 | 0.86 | 99 | 1009.7 |
| 20260506020603 | -17 | 181 | 4.8 | 6.4 | 0.10 | 0.00 | 0.79 | 99 | 1009.7 |
| 20260506020103 | -17 | 18 | 0.0 | 0.0 | 0.03 | 0.00 | 0.71 | 99 | 1009.5 |
| 20260506015603 | -17 | 42 | 0.0 | 1.6 | 0.46 | 0.00 | 0.51 | 99 | 1009.7 |
| 20260506015103 | -17 | 347 | 4.8 | 6.4 | 0.20 | 0.00 | 0.25 | 99 | 1009.7 |
| 20260506014603 | -17 | 37 | 1.6 | 1.6 | 0.18 | 0.00 | 0.23 | 99 | 1009.7 |
| 20260506014103 | -17 | 296 | 6.4 | 6.4 | 0.15 | 0.00 | 0.20 | 99 | 1009.7 |
| 20260506013602 | -17 | 345 | 1.6 | 3.2 | 0.13 | 0.00 | 0.18 | 99 | 1009.8 |
| 20260506013110 | -17 | 16 | 0.0 | 0.0 | 0.10 | 0.00 | 0.15 | 99 | 1010.1 |
| 20260506012603 | -17 | 32 | 0.0 | 0.0 | 0.05 | 0.00 | 0.10 | 99 | 1010.2 |
| 20260506012103 | -17 | 347 | 0.0 | 0.0 | 0.03 | 0.00 | 0.08 | 99 | 1010.3 |
| 20260506011603 | -17 | 2 | 0.0 | 0.0 | 0.03 | 0.00 | 0.08 | 99 | 1009.8 |
| 20260506011103 | -17 | 354 | 0.0 | 1.6 | 0.00 | 0.00 | 0.05 | 99 | 1010.2 |
| 20260506010603 | -17 | 352 | 0.0 | 1.6 | 0.00 | 0.00 | 0.05 | 99 | 1010.5 |
| 20260506010103 | -17 | 32 | 0.0 | 0.0 | 0.00 | 0.00 | 0.05 | 99 | 1010.2 |
| 20260506005603 | -17 | 34 | 0.0 | 0.0 | 0.05 | 0.00 | 0.05 | 99 | 1010.1 |
| 20260506005103 | -17 | 347 | 0.0 | 1.6 | 0.05 | 0.00 | 0.05 | 99 | 1010.3 |
| 20260506004604 | -17 | 152 | 1.6 | 1.6 | 0.05 | 0.00 | 0.05 | 99 | 1010.5 |
| 20260506004102 | -17 | 55 | 0.0 | 1.6 | 0.05 | 0.00 | 0.05 | 99 | 1010.6 |
| 20260506003603 | -17 | 89 | 1.6 | 1.6 | 0.03 | 0.00 | 0.03 | 99 | 1010.7 |
| 20260506003102 | -17 | 324 | 0.0 | 0.0 | 0.03 | 0.00 | 0.03 | 99 | 1010.6 |
| 20260506002602 | -17 | 216 | 3.2 | 4.8 | 0.03 | 0.00 | 0.03 | 99 | 1010.8 |
| 20260506002102 | -17 | 152 | 0.0 | 1.6 | 0.03 | 0.00 | 0.03 | 99 | 1010.7 |
| 20260506001602 | -17 | 200 | 4.8 | 4.8 | 0.00 | 0.00 | 0.00 | 99 | 1011.0 |
| 20260506001103 | -17 | 148 | 6.4 | 8.0 | 0.00 | 0.00 | 0.00 | 99 | 1010.7 |
| 20260506000602 | -17 | 68 | 0.0 | 1.6 | 0.00 | 0.00 | 0.00 | 99 | 1010.6 |
| 20260505235602 | -17 | 328 | 1.6 | 1.6 | 0.00 | 0.00 | 0.00 | 99 | 1010.8 |
| 20260505235103 | -17 | 295 | 1.6 | 1.6 | 0.00 | 0.00 | 0.00 | 99 | 1010.8 |
| 20260505234603 | -17 | 322 | 1.6 | 1.6 | 0.00 | 0.00 | 0.00 | 99 | 1011.0 |
| 20260505234102 | -17 | 325 | 1.6 | 3.2 | 0.00 | 0.00 | 0.00 | 99 | 1011.1 |
| 20260505233603 | -17 | 314 | 1.6 | 3.2 | 0.00 | 0.00 | 0.00 | 99 | 1011.3 |
| 20260505233103 | -17 | 332 | 1.6 | 3.2 | 0.00 | 0.00 | 0.00 | 99 | 1011.7 |
| 20260505232603 | -17 | 44 | 0.0 | 0.0 | 0.00 | 0.00 | 0.00 | 99 | 1011.7 |
| 20260505232102 | -17 | 24 | 0.0 | 0.0 | 0.00 | 0.00 | 0.00 | 99 | 1011.6 |
| 20260505231603 | -17 | 315 | 1.6 | 3.2 | 0.00 | 0.00 | 0.00 | 99 | 1011.6 |
| 20260505231103 | -17 | 352 | 1.6 | 1.6 | 0.00 | 0.00 | 0.00 | 99 | 1011.6 |
| 20260505230602 | -17 | 5 | 1.6 | 1.6 | 0.00 | 0.00 | 0.00 | 99 | 1011.8 |
| 20260505225603 | -17 | 47 | 0.0 | 1.6 | 0.03 | 0.00 | 3.63 | 99 | 1011.7 |
| 20260505225103 | -17 | 358 | 0.0 | 0.0 | 0.03 | 0.00 | 3.63 | 99 | 1012.2 |
| 20260505224602 | -17 | 253 | 1.6 | 1.6 | 0.03 | 0.00 | 3.63 | 99 | 1012.2 |
| 20260505224103 | -17 | 345 | 0.0 | 0.0 | 0.03 | 0.00 | 3.63 | 99 | 1012.0 |
| 20260505223603 | -17 | 46 | 0.0 | 0.0 | 0.03 | 0.00 | 3.63 | 99 | 1012.2 |
| 20260505223103 | -17 | 68 | 0.0 | 0.0 | 0.03 | 0.00 | 3.63 | 99 | 1012.2 |
| 20260505222603 | -17 | 85 | 1.6 | 1.6 | 0.03 | 0.00 | 3.63 | 99 | 1012.2 |
| 20260505222103 | -17 | 55 | 0.0 | 1.6 | 0.00 | 0.00 | 3.61 | 99 | 1012.3 |
| 20260505221602 | -17 | 122 | 0.0 | 1.6 | 0.00 | 0.00 | 3.61 | 99 | 1012.2 |
| 20260505221102 | -17 | 289 | 3.2 | 3.2 | 0.00 | 0.00 | 3.61 | 99 | 1012.5 |
| 20260505220603 | -17 | 24 | 0.0 | 0.0 | 0.00 | 0.00 | 3.61 | 99 | 1012.5 |
| 20260505220103 | -17 | 10 | 1.6 | 1.6 | 0.00 | 0.00 | 3.61 | 99 | 1012.2 |
| 20260505215603 | -17 | 324 | 3.2 | 3.2 | 0.00 | 0.00 | 3.61 | 99 | 1012.5 |
| 20260505215102 | -17 | 28 | 0.0 | 0.0 | 0.00 | 0.00 | 3.61 | 99 | 1012.5 |
| 20260505214602 | -17 | 5 | 0.0 | 0.0 | 0.00 | 0.00 | 3.61 | 99 | 1012.6 |
| 20260505214102 | -17 | 58 | 0.0 | 0.0 | 0.00 | 0.00 | 3.61 | 99 | 1012.3 |
| 20260505213602 | -17 | 126 | 1.6 | 1.6 | 0.00 | 0.00 | 3.61 | 99 | 1012.5 |
| 20260505213103 | -17 | 79 | 0.0 | 0.0 | 0.00 | 0.00 | 3.61 | 99 | 1012.6 |
| 20260505212602 | -17 | 95 | 1.6 | 1.6 | 0.00 | 0.00 | 3.61 | 99 | 1012.6 |
| 20260505212102 | -17 | 59 | 0.0 | 0.0 | 0.00 | 0.00 | 3.61 | 99 | 1012.6 |
| 20260505211603 | -17 | 58 | 0.0 | 0.0 | 0.00 | 0.00 | 3.61 | 99 | 1012.3 |
| 20260505211103 | -17 | 98 | 0.0 | 1.6 | 0.00 | 0.00 | 3.61 | 99 | 1012.3 |
| 20260505210603 | -17 | 329 | 1.6 | 1.6 | 0.00 | 0.00 | 3.61 | 99 | 1012.5 |
| 20260505205602 | -17 | 83 | 0.0 | 1.6 | 0.00 | 0.00 | 3.61 | 99 | 1012.3 |
| 20260505205103 | -17 | 174 | 3.2 | 3.2 | 0.00 | 0.00 | 3.61 | 99 | 1012.5 |
| 20260505204603 | -17 | 160 | 3.2 | 3.2 | 0.00 | 0.00 | 3.61 | 99 | 1012.6 |
| 20260505204102 | -17 | 60 | 0.0 | 0.0 | 0.00 | 0.00 | 3.61 | 99 | 1012.8 |
| 20260505203603 | -17 | 54 | 0.0 | 1.6 | 0.00 | 0.00 | 3.61 | 99 | 1013.0 |
| 20260505203102 | -17 | 71 | 0.0 | 0.0 | 0.00 | 0.00 | 3.61 | 99 | 1012.8 |
| 20260505202602 | -17 | 133 | 0.0 | 1.6 | 0.00 | 0.00 | 3.61 | 99 | 1013.0 |
| 20260505201603 | -17 | 100 | 0.0 | 1.6 | 0.00 | 0.00 | 3.61 | 99 | 1013.1 |
| 20260505201102 | -17 | 85 | 0.0 | 1.6 | 0.00 | 0.00 | 3.61 | 99 | 1012.8 |
| 20260505200603 | -17 | 160 | 1.6 | 1.6 | 0.00 | 0.00 | 3.61 | 99 | 1013.0 |
| 20260505195602 | -17 | 74 | 0.0 | 0.0 | 0.00 | 0.00 | 3.61 | 99 | 1012.8 |
| 20260505195103 | -17 | 46 | 0.0 | 0.0 | 0.00 | 0.00 | 3.61 | 99 | 1012.6 |
| 20260505194603 | -17 | 3 | 0.0 | 0.0 | 0.00 | 0.00 | 3.61 | 99 | 1012.7 |
| 20260505194103 | -17 | 5 | 0.0 | 0.0 | 0.00 | 0.00 | 3.61 | 99 | 1012.7 |
| 20260505193602 | -17 | 0 | 0.0 | 0.0 | 0.00 | 0.00 | 3.61 | 99 | 1012.8 |
| 20260505193102 | -17 | 187 | 3.2 | 4.8 | 0.00 | 0.00 | 3.61 | 99 | 1012.5 |
| 20260505192603 | -17 | 150 | 0.0 | 1.6 | 0.00 | 0.00 | 3.61 | 99 | 1012.7 |
| 20260505192103 | -17 | 56 | 0.0 | 0.0 | 0.00 | 0.00 | 3.61 | 99 | 1012.3 |
| 20260505191603 | -17 | 203 | 4.8 | 4.8 | 0.00 | 0.00 | 3.61 | 99 | 1012.6 |
| 20260505191102 | -17 | 71 | 0.0 | 1.6 | 0.00 | 0.00 | 3.61 | 99 | 1012.3 |
| 20260505190602 | -17 | 181 | 0.0 | 1.6 | 0.00 | 0.00 | 3.61 | 99 | 1012.3 |
| 20260505190103 | -17 | 69 | 0.0 | 0.0 | 0.00 | 0.00 | 3.61 | 99 | 1012.5 |
| 20260505185602 | -17 | 175 | 1.6 | 3.2 | 0.00 | 0.00 | 3.61 | 99 | 1012.3 |
| 20260505185102 | -17 | 147 | 1.6 | 3.2 | 0.00 | 0.00 | 3.61 | 98 | 1012.5 |
| 20260505184603 | -17 | 137 | 1.6 | 1.6 | 0.00 | 0.00 | 3.61 | 98 | 1012.6 |
| 20260505184103 | -17 | 104 | 1.6 | 1.6 | 0.00 | 0.00 | 3.61 | 98 | 1012.5 |
| 20260505183603 | -17 | 190 | 1.6 | 3.2 | 0.00 | 0.00 | 3.61 | 97 | 1012.2 |
| 20260505183103 | -17 | 75 | 0.0 | 0.0 | 0.00 | 0.00 | 3.61 | 96 | 1012.3 |
| 20260505182603 | -17 | 178 | 1.6 | 3.2 | 0.00 | 0.00 | 3.61 | 95 | 1012.6 |
| 20260505182103 | -17 | 158 | 1.6 | 3.2 | 0.00 | 0.00 | 3.61 | 95 | 1012.3 |
| 20260505181603 | -17 | 139 | 1.6 | 1.6 | 0.00 | 0.00 | 3.61 | 95 | 1012.3 |
| 20260505181102 | -17 | 93 | 0.0 | 1.6 | 0.00 | 0.00 | 3.61 | 96 | 1012.2 |
| 20260505180602 | -17 | 64 | 0.0 | 1.6 | 0.00 | 0.00 | 3.61 | 96 | 1012.2 |
| 20260505175603 | -17 | 92 | 1.6 | 3.2 | 0.00 | 0.00 | 3.61 | 94 | 1012.5 |
| 20260505175103 | -17 | 46 | 0.0 | 0.0 | 0.00 | 0.00 | 3.61 | 92 | 1012.3 |
| 20260505174603 | -17 | 123 | 1.6 | 3.2 | 0.00 | 0.00 | 3.61 | 92 | 1012.3 |
| 20260505174103 | -17 | 120 | 3.2 | 4.8 | 0.00 | 0.00 | 3.61 | 91 | 1012.3 |
| 20260505173603 | -17 | 108 | 1.6 | 3.2 | 0.00 | 0.00 | 3.61 | 92 | 1012.3 |
| 20260505173102 | -17 | 21 | 0.0 | 0.0 | 0.00 | 0.00 | 3.61 | 92 | 1012.3 |
| 20260505172602 | -17 | 119 | 1.6 | 3.2 | 0.00 | 0.00 | 3.61 | 92 | 1012.2 |
| 20260505172102 | -17 | 109 | 0.0 | 1.6 | 0.00 | 0.00 | 3.61 | 91 | 1012.2 |
| 20260505171602 | -17 | 171 | 8.0 | 9.7 | 0.00 | 0.00 | 3.61 | 89 | 1012.2 |
| 20260505171103 | -17 | 194 | 4.8 | 6.4 | 0.00 | 0.00 | 3.61 | 90 | 1012.2 |
| 20260505170603 | -17 | 65 | 0.0 | 1.6 | 0.00 | 0.00 | 3.61 | 91 | 1012.2 |
| 20260505165603 | -17 | 94 | 1.6 | 3.2 | 0.00 | 0.00 | 3.61 | 89 | 1012.1 |
| 20260505165103 | -17 | 171 | 3.2 | 4.8 | 0.00 | 0.00 | 3.61 | 91 | 1012.3 |
| 20260505164603 | -17 | 130 | 1.6 | 3.2 | 0.00 | 0.00 | 3.61 | 90 | 1012.2 |
| 20260505164102 | -17 | 191 | 1.6 | 1.6 | 0.00 | 0.00 | 3.61 | 90 | 1012.2 |
| 20260505163602 | -17 | 98 | 0.0 | 1.6 | 0.00 | 0.00 | 3.61 | 89 | 1012.2 |
| 20260505163103 | -17 | 110 | 3.2 | 4.8 | 0.00 | 0.00 | 3.61 | 89 | 1012.2 |
| 20260505162605 | -17 | 154 | 6.4 | 6.4 | 0.00 | 0.00 | 3.61 | 89 | 1012.1 |
| 20260505162103 | -17 | 84 | 1.6 | 1.6 | 0.00 | 0.00 | 3.61 | 89 | 1012.2 |
| 20260505161603 | -17 | 149 | 6.4 | 8.0 | 0.00 | 0.00 | 3.61 | 88 | 1012.2 |
| 20260505161103 | -17 | 171 | 6.4 | 6.4 | 0.00 | 0.00 | 3.61 | 89 | 1012.2 |
| 20260505160603 | -17 | 174 | 4.8 | 6.4 | 0.00 | 0.00 | 3.61 | 90 | 1012.5 |
| 20260505153102 | -17 | 146 | 0.0 | 1.6 | 0.00 | 0.00 | 3.61 | 89 | 1012.7 |
| 20260505152603 | -17 | 154 | 1.6 | 3.2 | 0.00 | 0.00 | 3.61 | 88 | 1012.5 |
| 20260505152103 | -17 | 175 | 4.8 | 4.8 | 0.00 | 0.00 | 3.61 | 87 | 1012.5 |
| 20260505151602 | -17 | 163 | 1.6 | 3.2 | 0.00 | 0.00 | 3.61 | 87 | 1012.6 |
| 20260505151103 | -17 | 100 | 1.6 | 1.6 | 0.00 | 0.00 | 3.61 | 89 | 1012.3 |
| 20260505150605 | -17 | 167 | 4.8 | 6.4 | 0.00 | 0.00 | 3.61 | 88 | 1012.5 |
| 20260505140603 | -17 | 133 | 4.8 | 8.0 | 0.00 | 0.00 | 3.61 | 88 | 1012.7 |
| 20260505124602 | -17 | 169 | 8.0 | 12.9 | 0.00 | 0.00 | 3.61 | 87 | 1013.0 |
| 20260505124104 | -17 | 147 | 8.0 | 9.7 | 0.00 | 0.00 | 3.61 | 86 | 1012.7 |
| 20260505123602 | -17 | 251 | 3.2 | 4.8 | 0.00 | 0.00 | 3.61 | 86 | 1012.7 |
| 20260505123102 | -17 | 89 | 3.2 | 6.4 | 0.00 | 0.00 | 3.61 | 87 | 1012.6 |
| 20260505122602 | -17 | 153 | 6.4 | 8.0 | 0.00 | 0.00 | 3.61 | 87 | 1012.6 |
| 20260505122102 | -17 | 143 | 1.6 | 3.2 | 0.00 | 0.00 | 3.61 | 89 | 1012.6 |
| 20260505121602 | -17 | 149 | 6.4 | 8.0 | 0.00 | 0.00 | 3.61 | 88 | 1012.7 |
| 20260505121102 | -17 | 213 | 6.4 | 8.0 | 0.00 | 0.00 | 3.61 | 90 | 1012.7 |
| 20260505120103 | -17 | 165 | 3.2 | 6.4 | 0.00 | 0.00 | 3.61 | 92 | 1012.7 |
| 20260505115603 | -17 | 189 | 6.4 | 6.4 | 0.00 | 0.00 | 3.61 | 92 | 1012.7 |
| 20260505115103 | -17 | 181 | 11.3 | 16.1 | 0.00 | 0.00 | 3.61 | 92 | 1012.7 |
| 20260505114602 | -17 | 179 | 6.4 | 8.0 | 0.00 | 0.00 | 3.61 | 92 | 1012.7 |
| 20260505114102 | -17 | 102 | 4.8 | 6.4 | 0.00 | 0.00 | 3.61 | 92 | 1012.3 |
| 20260505113603 | -17 | 175 | 4.8 | 6.4 | 0.00 | 0.00 | 3.61 | 93 | 1012.5 |
| 20260505113102 | -17 | 199 | 9.7 | 12.9 | 0.00 | 0.00 | 3.61 | 93 | 1012.8 |
| 20260505112603 | -17 | 159 | 12.9 | 16.1 | 0.00 | 0.00 | 3.61 | 92 | 1012.7 |
| 20260505112103 | -17 | 171 | 11.3 | 14.5 | 0.00 | 0.00 | 3.61 | 92 | 1012.7 |
| 20260505111603 | -17 | 136 | 6.4 | 9.7 | 0.00 | 0.00 | 3.61 | 94 | 1012.6 |
| 20260505111103 | -17 | 178 | 8.0 | 14.5 | 0.00 | 0.00 | 3.61 | 95 | 1012.7 |
| 20260505110603 | -17 | 193 | 6.4 | 6.4 | 0.00 | 0.00 | 3.61 | 94 | 1012.5 |
| 20260505102102 | -17 | 160 | 1.6 | 1.6 | 0.00 | 0.00 | 3.61 | 99 | 1012.5 |
| 20260505101602 | -17 | 174 | 1.6 | 1.6 | 0.00 | 0.00 | 3.61 | 99 | 1012.3 |
| 20260505101102 | -17 | 341 | 0.0 | 1.6 | 0.00 | 0.00 | 3.61 | 99 | 1012.2 |
| 20260505100603 | -17 | 33 | 0.0 | 0.0 | 0.00 | 0.00 | 3.61 | 99 | 1012.2 |
| 20260505095603 | -17 | 347 | 0.0 | 0.0 | 0.00 | 0.00 | 3.61 | 99 | 1012.3 |
| 20260505095103 | -17 | 8 | 0.0 | 0.0 | 0.00 | 0.00 | 3.61 | 99 | 1012.2 |
| 20260505094604 | -17 | 18 | 0.0 | 1.6 | 0.00 | 0.00 | 3.61 | 99 | 1012.3 |
| 20260505094103 | -17 | 345 | 0.0 | 1.6 | 0.00 | 0.00 | 3.61 | 99 | 1012.2 |
| 20260505093602 | -17 | 50 | 0.0 | 0.0 | 0.00 | 0.00 | 3.61 | 99 | 1012.3 |
| 20260505093104 | -17 | 39 | 0.0 | 0.0 | 0.00 | 0.00 | 3.61 | 99 | 1012.2 |
| 20260505092603 | -17 | 356 | 1.6 | 3.2 | 0.00 | 0.00 | 3.61 | 99 | 1012.2 |
| 20260505092103 | -17 | 344 | 0.0 | 1.6 | 0.00 | 0.00 | 3.61 | 99 | 1012.3 |
| 20260505091602 | -17 | 342 | 3.2 | 3.2 | 0.00 | 0.00 | 3.61 | 99 | 1012.3 |
| 20260505091103 | -17 | 1 | 0.0 | 1.6 | 0.00 | 0.00 | 3.61 | 99 | 1012.3 |
| 20260505090603 | -17 | 0 | 0.0 | 1.6 | 0.00 | 0.00 | 3.61 | 99 | 1012.5 |
| 20260505085603 | -17 | 22 | 0.0 | 0.0 | 0.00 | 0.00 | 3.61 | 99 | 1012.5 |
| 20260505085103 | -17 | 69 | 0.0 | 0.0 | 0.00 | 0.00 | 3.61 | 99 | 1012.6 |
| 20260505084602 | -17 | 105 | 0.0 | 1.6 | 0.00 | 0.00 | 3.61 | 99 | 1012.5 |
| 20260505084103 | -17 | 239 | 1.6 | 1.6 | 0.00 | 0.00 | 3.61 | 99 | 1012.2 |
| 20260505083604 | -17 | 337 | 0.0 | 1.6 | 0.00 | 0.00 | 3.61 | 99 | 1012.3 |
| 20260505083103 | -17 | 8 | 0.0 | 0.0 | 0.00 | 0.00 | 3.61 | 99 | 1012.5 |
| 20260505082602 | -17 | 10 | 1.6 | 3.2 | 0.00 | 0.00 | 3.61 | 99 | 1012.2 |
| 20260505082102 | -17 | 269 | 0.0 | 1.6 | 0.00 | 0.00 | 3.61 | 99 | 1012.2 |
| 20260505081602 | -17 | 42 | 0.0 | 0.0 | 0.00 | 0.00 | 3.61 | 99 | 1012.2 |
| 20260505081104 | -17 | 26 | 1.6 | 3.2 | 0.00 | 0.00 | 3.61 | 99 | 1012.1 |
| 20260505080602 | -17 | 11 | 3.2 | 3.2 | 0.00 | 0.00 | 3.61 | 99 | 1012.2 |
| 20260505075603 | -17 | 331 | 1.6 | 1.6 | 0.03 | 0.00 | 3.61 | 99 | 1012.6 |
| 20260505074603 | -17 | 40 | 0.0 | 0.0 | 0.03 | 0.00 | 3.61 | 99 | 1012.7 |
| 20260505074102 | -17 | 31 | 0.0 | 0.0 | 0.03 | 0.00 | 3.61 | 99 | 1012.7 |
| 20260505073604 | -17 | 40 | 0.0 | 0.0 | 0.03 | 0.00 | 3.61 | 99 | 1012.7 |
| 20260505073102 | -17 | 43 | 0.0 | 0.0 | 0.03 | 0.00 | 3.61 | 99 | 1012.6 |
| 20260505072602 | -17 | 48 | 0.0 | 1.6 | 0.00 | 0.00 | 3.58 | 99 | 1012.6 |
| 20260505072103 | -17 | 69 | 0.0 | 1.6 | 0.00 | 0.00 | 3.58 | 99 | 1012.5 |
| 20260505071603 | -17 | 103 | 0.0 | 1.6 | 0.00 | 0.00 | 3.58 | 99 | 1012.5 |
| 20260505071103 | -17 | 169 | 1.6 | 3.2 | 0.00 | 0.00 | 3.58 | 99 | 1012.2 |
| 20260505070603 | -17 | 91 | 0.0 | 1.6 | 0.00 | 0.00 | 3.58 | 99 | 1012.3 |
| 20260505070104 | -17 | 358 | 0.0 | 0.0 | 0.00 | 0.00 | 3.58 | 99 | 1012.3 |
| 20260505065602 | -17 | 13 | 0.0 | 0.0 | 1.22 | 0.00 | 3.56 | 99 | 1012.3 |
| 20260505065103 | -17 | 9 | 0.0 | 1.6 | 1.19 | 0.00 | 3.53 | 99 | 1012.2 |
| 20260505064602 | -17 | 45 | 0.0 | 0.0 | 1.17 | 0.00 | 3.51 | 99 | 1012.2 |
| 20260505064104 | -17 | 171 | 1.6 | 1.6 | 1.17 | 0.00 | 3.51 | 99 | 1012.5 |
| 20260505063603 | -17 | 102 | 1.6 | 1.6 | 1.14 | 0.00 | 3.48 | 99 | 1012.3 |
| 20260505063103 | -17 | 344 | 0.0 | 1.6 | 1.09 | 0.00 | 3.45 | 99 | 1012.3 |
| 20260505062604 | -17 | 357 | 4.8 | 6.4 | 1.02 | 0.00 | 3.38 | 99 | 1012.3 |
| 20260505062103 | -17 | 354 | 4.8 | 4.8 | 0.84 | 0.00 | 3.20 | 99 | 1012.2 |
| 20260505061602 | -17 | 342 | 3.2 | 6.4 | 0.66 | 0.00 | 3.00 | 99 | 1012.2 |
| 20260505061103 | -17 | 320 | 3.2 | 4.8 | 0.28 | 0.00 | 0.36 | 99 | 1012.2 |
| 20260505060602 | -17 | 328 | 4.8 | 4.8 | 0.13 | 0.00 | 2.49 | 99 | 1011.7 |
| 20260505060103 | -17 | 303 | 4.8 | 6.4 | 0.03 | 0.00 | 2.39 | 99 | 1011.7 |
| 20260505055602 | -17 | 274 | 1.6 | 3.2 | 0.38 | 0.00 | 2.29 | 99 | 1011.5 |
| 20260505055103 | -17 | 342 | 3.2 | 4.8 | 0.30 | 0.00 | 2.21 | 99 | 1011.2 |
| 20260505054603 | -17 | 335 | 1.6 | 3.2 | 0.30 | 0.00 | 2.21 | 99 | 1011.2 |
| 20260505054102 | -17 | 5 | 1.6 | 1.6 | 0.28 | 0.00 | 2.18 | 99 | 1011.2 |
| 20260505053602 | -17 | 299 | 3.2 | 3.2 | 0.28 | 0.00 | 2.18 | 99 | 1010.8 |
| 20260505053102 | -17 | 42 | 0.0 | 0.0 | 0.28 | 0.00 | 2.18 | 99 | 1011.0 |
| 20260505052602 | -17 | 71 | 0.0 | 1.6 | 0.25 | 0.00 | 2.16 | 99 | 1010.7 |
| 20260505052103 | -17 | 93 | 0.0 | 0.0 | 0.23 | 0.00 | 2.13 | 99 | 1010.7 |
| 20260505051602 | -17 | 187 | 1.6 | 1.6 | 0.20 | 0.00 | 2.11 | 99 | 1011.0 |
| 20260505051103 | -17 | 113 | 0.0 | 1.6 | 0.15 | 0.00 | 2.06 | 99 | 1011.0 |
| 20260505050604 | -17 | 185 | 1.6 | 3.2 | 0.08 | 0.00 | 1.98 | 99 | 1011.5 |
| 20260505050103 | -17 | 20 | 0.0 | 1.6 | 0.03 | 0.00 | 1.93 | 99 | 1011.2 |
| 20260505041603 | -17 | 335 | 0.0 | 1.6 | 0.10 | 0.00 | 0.97 | 99 | 1012.1 |
| 20260505041102 | -17 | 336 | 0.0 | 1.6 | 0.08 | 0.00 | 0.94 | 99 | 1011.8 |
| 20260505040603 | -17 | 336 | 0.0 | 1.6 | 0.08 | 0.00 | 0.94 | 99 | 1011.7 |
| 20260505035602 | -17 | 333 | 0.0 | 1.6 | 0.30 | 0.00 | 0.84 | 99 | 1011.8 |
| 20260505035102 | -17 | 321 | 1.6 | 1.6 | 0.25 | 0.00 | 0.79 | 99 | 1012.1 |
| 20260505034603 | -17 | 340 | 0.0 | 0.0 | 0.18 | 0.00 | 0.71 | 99 | 1012.2 |